Satellite-Ground Cal/Val Site Overpasses Predictions

Prediction of Satellite NPP Overpassing Cal/Val Site: Antarctic Dome C

Ground Cal/Val Site Location: Latitude: -75.10, Longitude: 123.35; Satellite-Ground Site NADIR distance within 100 km.

Table of predicted overpasses for the next 14.0 days since TLE Epoch: 2/15/2020
Interval Starting Time Ending Time Minimum Distance Time Minimum Distance (km)
1 02/15/2020 07:24:43 02/15/2020 07:25:10 02/15/2020 07:24:56 37.59
2 02/17/2020 15:07:10 02/17/2020 15:07:18 02/17/2020 15:07:14 94.82
3 02/18/2020 14:48:09 02/18/2020 14:48:38 02/18/2020 14:48:24 16.34
4 02/20/2020 07:30:59 02/20/2020 07:31:28 02/20/2020 07:31:14 1.37
5 02/23/2020 14:54:28 02/23/2020 14:54:57 02/23/2020 14:54:42 20.40
6 02/24/2020 14:35:46 02/24/2020 14:36:00 02/24/2020 14:35:53 86.58
7 02/25/2020 07:37:19 02/25/2020 07:37:46 02/25/2020 07:37:32 35.55
8 02/26/2020 07:18:34 02/26/2020 07:18:53 02/26/2020 07:18:43 74.49


NCC Satellite Cal/Val Overpasses Prediction Service
